map of LGTG home
LGTG - Airport
Location
City:  Tanagra, Greece
ICAO:LGTG

Details
Type:Airport (Aerodrome, Airfield)
Use:Military
Latitude:3820'23"N (38.339847)
Longitude:2333'54"E (23.564958)
Datum:WGS 1984
Elevation:485 ft (148 m)
Variation:4.66E (WMM2015v2 magnetic declination)
0.11 annual change
Runways:1
Longest:9810 × 148 ft (2990 × 45 m), paved

Time
Time Zone:UTC+2 (DST+3)
Local Time:

Weather
METAR:LGTG 041350Z 06008KT 9999 SCT020 15/09 Q1017 RMK SCT100 OVC180 BLU

Related Locations
Nearby:
Farthest:CHT: 11332 mi / 18237 km
Waitangi [Tuuta], CIT, NZ

Find:

   beyond  
but within

Other Information
Maps:
NOTAMs:
Links:
Sources:

  
  • flag of Greece
  

Sectional Chart

Flight Planning
at skyvector.com

Satellite Image

Google Maps Satellite view

 

Copyright © 2004-2019 Karl L. Swartz. All rights reserved.
The Great Circle Mapper name and logo are trademarks of the Great Circle Mapper.
All other trademarks mentioned herein belong to their respective owners.
Please see credits for attibutions and further copyright information.

  Follow gcmap on Facebook Follow gcmap on Twitter GCmap on LinkedIn

hCard Microformat

Geo Microformat